星链-11321 (STARLINK-11321)

导读 | 星芒AI

STARLINK-11321 是 SpaceX Starlink 项目中的一颗低轨通信卫星,属于第 113 批部署的星链卫星之一。该卫星于 2023 年发射,旨在为全球用户提供高速互联网服务。它运行在约 550 公里的轨道高度,设计寿命为 5 至 7 年。STARLINK-11321 采用先进的相控阵天线和激光通信技术,支持高带宽、低延迟的网络连接,有助于改善偏远地区的网络覆盖。该卫星系统还在不断扩展,以增强全球网络的稳定性和容量。

基本信息
目录编号:
61877
目录名称:
STARLINK-11321
国际标识:
2024-204D
轨道中心:
EARTH
卫星名称:
星链-11321
卫星全名:
星链-11321 (STARLINK-11321)
卫星状态:
在轨 (已飞行354 天)
发射日期:
2024-11-09 UTC
国别 :
美国 (US)
星等 :
--
轨道信息
数据来源 国际轨道数据
星历时间: 2025-10-28T14:30:09+0800
1天前
查看轨道信息
半长轴: 6737.926km
偏心率: 0.0001593
轨道倾角: 53.158°
近地点辐角 67.310°
升交点赤经 289.270°
平近点角 292.809°
近地点: 358.717km
远地点: 360.865km
周期: 91.738分钟
每日圈数: 15.696883
详细信息
固有亮度:
5
最大亮度:
2.5
卫星平台:
Starlink V1.0
覆盖范围:
全球
运营商:
太空探索技术公司
运营商所在国:
美国
制造商(研发单位):
太空探索技术公司
制造商所在国:
美国
使用方式:
暂无
卫星简介
Starlink 计划是 SpaceX 推出的全球卫星互联网项目,通过发射低轨道卫星,为全球尤其是偏远地区提供高速、低延迟的互联网服务。自 2019 年起,Starlink 已部署数千颗卫星,旨在缩小全球数字鸿沟,推动互联网普及。该项目还为军事、航空等行业提供通信支持,带来广泛经济效益。
2D轨道图
3D轨道图
轨道高度分析图
轨道倾角分析图
轨道综合分析图
查看轨道综合分析图